| time (UTC) | temp F | wind direction | speed MPH | gust MPH | rain 1hr in | rain 24hr in | rain mn in | humidity % | barometer mb |
| 20260904222044 | 73 | 311 | 1.0 | 3.0 | 0.00 | 0.00 | 0.00 | 10 | 1014.2 |
| 20260904221538 | 73 | 334 | 0.0 | 2.0 | 0.00 | 0.00 | 0.00 | 10 | 1014.1 |
| 20260904221033 | 73 | 318 | 0.0 | 3.0 | 0.00 | 0.00 | 0.00 | 10 | 1014.3 |
| 20260904220533 | 73 | 315 | 0.0 | 2.0 | 0.00 | 0.00 | 0.00 | 10 | 1014.1 |
| 20260904220029 | 73 | 326 | 0.0 | 2.0 | 0.00 | 0.00 | 0.00 | 10 | 1014.0 |
| 20260904215528 | 73 | 7 | 1.0 | 2.0 | 0.00 | 0.00 | 0.00 | 10 | 1014.3 |
| 20260904215024 | 73 | 328 | 1.0 | 1.0 | 0.00 | 0.00 | 0.00 | 10 | 1014.1 |
| 20260904214519 | 73 | 304 | 0.0 | 3.0 | 0.00 | 0.00 | 0.00 | 10 | 1013.9 |
| 20260904214015 | 74 | 328 | 0.0 | 1.0 | 0.00 | 0.00 | 0.00 | 10 | 1013.9 |
| 20260904213513 | 73 | 27 | 0.0 | 2.0 | 0.00 | 0.00 | 0.00 | 10 | 1014.0 |
| 20260904213010 | 72 | 23 | 0.0 | 0.0 | 0.00 | 0.00 | 0.00 | 10 | 1014.0 |
| 20260904212509 | 72 | 31 | 0.0 | 0.0 | 0.00 | 0.00 | 0.00 | 10 | 1013.6 |
| 20260904212004 | 72 | 50 | 0.0 | 0.0 | 0.00 | 0.00 | 0.00 | 10 | 1013.6 |
| 20260904211458 | 72 | 7 | 0.0 | 0.0 | 0.00 | 0.00 | 0.00 | 10 | 1013.3 |
| 20260904210954 | 71 | 43 | 0.0 | 0.0 | 0.00 | 0.00 | 0.00 | 10 | 1013.5 |
| 20260904210453 | 72 | 37 | 0.0 | 0.0 | 0.00 | 0.00 | 0.00 | 10 | 1013.2 |
| 20260904205949 | 71 | 356 | 0.0 | 0.0 | 0.00 | 0.00 | 0.00 | 10 | 1013.3 |
| 20260904205444 | 71 | 37 | 0.0 | 0.0 | 0.00 | 0.00 | 0.00 | 10 | 1013.3 |
| 20260904204941 | 71 | 1 | 0.0 | 0.0 | 0.00 | 0.00 | 0.00 | 10 | 1013.2 |
| 20260904204437 | 70 | 44 | 0.0 | 0.0 | 0.00 | 0.00 | 0.00 | 10 | 1013.1 |
| 20260904203933 | 70 | 38 | 0.0 | 0.0 | 0.00 | 0.00 | 0.00 | 10 | 1013.0 |
| 20260904203429 | 70 | 22 | 0.0 | 1.0 | 0.00 | 0.00 | 0.00 | 10 | 1013.3 |
| 20260904202925 | 70 | 38 | 0.0 | 0.0 | 0.00 | 0.00 | 0.00 | 10 | 1012.9 |
| 20260904202420 | 71 | 12 | 0.0 | 0.0 | 0.00 | 0.00 | 0.00 | 10 | 1013.0 |
| 20260904201916 | 71 | 18 | 0.0 | 0.0 | 0.00 | 0.00 | 0.00 | 10 | 1012.7 |
| 20260904201411 | 71 | 335 | 0.0 | 0.0 | 0.00 | 0.00 | 0.00 | 10 | 1012.7 |
| 20260904200907 | 72 | 30 | 0.0 | 0.0 | 0.00 | 0.00 | 0.00 | 10 | 1013.0 |
| 20260904200405 | 71 | 43 | 0.0 | 0.0 | 0.00 | 0.00 | 0.00 | 10 | 1012.9 |
| 20260904195900 | 71 | 37 | 0.0 | 0.0 | 0.00 | 0.00 | 0.00 | 10 | 1012.6 |
| 20260904195358 | 70 | 35 | 0.0 | 0.0 | 0.00 | 0.00 | 0.00 | 10 | 1012.5 |
| 20260904194853 | 72 | 40 | 0.0 | 0.0 | 0.00 | 0.00 | 0.00 | 10 | 1012.2 |
| 20260904194352 | 72 | 91 | 0.0 | 1.0 | 0.00 | 0.00 | 0.00 | 10 | 1012.3 |
| 20260904193848 | 72 | 358 | 0.0 | 1.0 | 0.00 | 0.00 | 0.00 | 10 | 1012.2 |
| 20260904193343 | 71 | 54 | 0.0 | 0.0 | 0.00 | 0.00 | 0.00 | 10 | 1012.2 |
| 20260904192838 | 71 | 24 | 0.0 | 0.0 | 0.00 | 0.00 | 0.00 | 10 | 1012.0 |
| 20260904192334 | 71 | 20 | 0.0 | 1.0 | 0.00 | 0.00 | 0.00 | 10 | 1012.1 |
| 20260904191830 | 71 | 47 | 0.0 | 0.0 | 0.00 | 0.00 | 0.00 | 10 | 1012.0 |
| 20260904191327 | 71 | 38 | 0.0 | 0.0 | 0.00 | 0.00 | 0.00 | 10 | 1011.9 |
| 20260904190823 | 71 | 52 | 0.0 | 0.0 | 0.00 | 0.00 | 0.00 | 10 | 1011.8 |
| 20260904190319 | 71 | 54 | 0.0 | 0.0 | 0.00 | 0.00 | 0.00 | 10 | 1011.8 |
| 20260904185814 | 72 | 58 | 0.0 | 0.0 | 0.00 | 0.00 | 0.00 | 10 | 1011.8 |
| 20260904185310 | 71 | 59 | 0.0 | 0.0 | 0.00 | 0.00 | 0.00 | 10 | 1011.6 |
| 20260904184809 | 71 | 37 | 0.0 | 0.0 | 0.00 | 0.00 | 0.00 | 10 | 1011.9 |
| 20260904184304 | 70 | 36 | 0.0 | 0.0 | 0.00 | 0.00 | 0.00 | 10 | 1012.1 |
| 20260904183759 | 69 | 345 | 0.0 | 0.0 | 0.00 | 0.00 | 0.00 | 10 | 1011.6 |
| 20260904183254 | 69 | 38 | 0.0 | 0.0 | 0.00 | 0.00 | 0.00 | 10 | 1011.9 |
| 20260904182750 | 70 | 207 | 0.0 | 0.0 | 0.00 | 0.00 | 0.00 | 10 | 1011.6 |
| 20260904182244 | 70 | 324 | 0.0 | 0.0 | 0.00 | 0.00 | 0.00 | 10 | 1011.6 |
| 20260904181740 | 69 | 44 | 0.0 | 0.0 | 0.00 | 0.00 | 0.00 | 10 | 1011.6 |
| 20260904181239 | 70 | 19 | 0.0 | 0.0 | 0.00 | 0.00 | 0.00 | 10 | 1011.6 |
| 20260904180735 | 69 | 30 | 0.0 | 1.0 | 0.00 | 0.00 | 0.00 | 10 | 1011.6 |
| 20260904180231 | 69 | 224 | 0.0 | 0.0 | 0.00 | 0.00 | 0.00 | 10 | 1011.8 |
| 20260904175729 | 68 | 89 | 0.0 | 0.0 | 0.00 | 0.00 | 0.00 | 10 | 1011.6 |
| 20260904175228 | 68 | 133 | 0.0 | 0.0 | 0.00 | 0.00 | 0.00 | 10 | 1011.5 |
| 20260904174723 | 68 | 192 | 0.0 | 0.0 | 0.00 | 0.00 | 0.00 | 10 | 1011.4 |
| 20260904174219 | 68 | 60 | 0.0 | 0.0 | 0.00 | 0.00 | 0.00 | 10 | 1011.2 |
| 20260904173714 | 68 | 120 | 0.0 | 0.0 | 0.00 | 0.00 | 0.00 | 10 | 1011.4 |
| 20260904173209 | 68 | 136 | 0.0 | 0.0 | 0.00 | 0.00 | 0.00 | 10 | 1011.3 |
| 20260904172705 | 67 | 98 | 0.0 | 0.0 | 0.00 | 0.00 | 0.00 | 10 | 1011.5 |
| 20260904172204 | 67 | 237 | 0.0 | 0.0 | 0.00 | 0.00 | 0.00 | 10 | 1011.5 |
| 20260904171700 | 67 | 257 | 0.0 | 0.0 | 0.00 | 0.00 | 0.00 | 10 | 1011.4 |
| 20260904171155 | 66 | 223 | 0.0 | 0.0 | 0.00 | 0.00 | 0.00 | 10 | 1011.3 |
| 20260904170651 | 67 | 242 | 0.0 | 0.0 | 0.00 | 0.00 | 0.00 | 10 | 1011.2 |
| 20260904170147 | 67 | 280 | 0.0 | 0.0 | 0.00 | 0.00 | 0.00 | 10 | 1011.4 |
| 20260904165645 | 67 | 252 | 0.0 | 1.0 | 0.00 | 0.00 | 0.00 | 10 | 1011.3 |
| 20260904165144 | 67 | 258 | 0.0 | 0.0 | 0.00 | 0.00 | 0.00 | 10 | 1011.3 |
| 20260904164640 | 67 | 338 | 0.0 | 0.0 | 0.00 | 0.00 | 0.00 | 10 | 1011.3 |
| 20260904164135 | 67 | 356 | 0.0 | 0.0 | 0.00 | 0.00 | 0.00 | 10 | 1011.2 |
| 20260904163630 | 67 | 318 | 0.0 | 0.0 | 0.00 | 0.00 | 0.00 | 10 | 1011.0 |
| 20260904163120 | 67 | 44 | 0.0 | 0.0 | 0.00 | 0.00 | 0.00 | 10 | 1011.1 |
| 20260904162620 | 66 | 26 | 0.0 | 0.0 | 0.00 | 0.00 | 0.00 | 10 | 1011.0 |
| 20260904162115 | 66 | 313 | 0.0 | 1.0 | 0.00 | 0.00 | 0.00 | 10 | 1011.0 |
| 20260904161610 | 66 | 33 | 0.0 | 1.0 | 0.00 | 0.00 | 0.00 | 10 | 1010.9 |
| 20260904161105 | 64 | 41 | 0.0 | 1.0 | 0.00 | 0.00 | 0.00 | 10 | 1010.8 |
| 20260904160601 | 64 | 25 | 0.0 | 0.0 | 0.00 | 0.00 | 0.00 | 10 | 1011.0 |
| 20260904160057 | 64 | 48 | 0.0 | 0.0 | 0.00 | 0.00 | 0.00 | 10 | 1010.8 |
| 20260904155556 | 64 | 45 | 0.0 | 0.0 | 0.00 | 0.00 | 0.00 | 10 | 1010.4 |
| 20260904155050 | 64 | 42 | 0.0 | 0.0 | 0.00 | 0.00 | 0.00 | 10 | 1010.5 |
| 20260904154544 | 63 | 38 | 0.0 | 0.0 | 0.00 | 0.00 | 0.00 | 10 | 1010.2 |
| 20260904154038 | 63 | 43 | 0.0 | 0.0 | 0.00 | 0.00 | 0.00 | 10 | 1010.2 |
| 20260904153537 | 63 | 58 | 0.0 | 0.0 | 0.00 | 0.00 | 0.00 | 10 | 1009.9 |
| 20260904153034 | 62 | 42 | 0.0 | 0.0 | 0.00 | 0.00 | 0.00 | 10 | 1010.0 |
| 20260904152530 | 63 | 50 | 0.0 | 0.0 | 0.00 | 0.00 | 0.00 | 10 | 1010.1 |
| 20260904152025 | 63 | 47 | 0.0 | 0.0 | 0.00 | 0.00 | 0.00 | 10 | 1009.9 |
| 20260904151520 | 63 | 52 | 0.0 | 0.0 | 0.00 | 0.00 | 0.00 | 10 | 1009.6 |
| 20260904151014 | 63 | 47 | 0.0 | 0.0 | 0.00 | 0.00 | 0.00 | 10 | 1009.7 |
| 20260904150514 | 62 | 47 | 0.0 | 0.0 | 0.00 | 0.00 | 0.00 | 10 | 1009.8 |
| 20260904150009 | 61 | 27 | 0.0 | 0.0 | 0.00 | 0.00 | 0.00 | 10 | 1009.8 |
| 20260904145503 | 61 | 27 | 0.0 | 1.0 | 0.00 | 0.00 | 0.00 | 10 | 1009.7 |
| 20260904144958 | 60 | 42 | 0.0 | 2.0 | 0.00 | 0.00 | 0.00 | 10 | 1009.3 |
| 20260904144454 | 58 | 30 | 0.0 | 0.0 | 0.00 | 0.00 | 0.00 | 10 | 1009.4 |
| 20260904143950 | 57 | 9 | 0.0 | 0.0 | 0.00 | 0.00 | 0.00 | 10 | 1010.0 |
| 20260904143446 | 57 | 31 | 0.0 | 0.0 | 0.00 | 0.00 | 0.00 | 10 | 1010.1 |
| 20260904142943 | 57 | 42 | 0.0 | 1.0 | 0.00 | 0.00 | 0.00 | 10 | 1009.7 |
| 20260904142439 | 57 | 36 | 0.0 | 0.0 | 0.00 | 0.00 | 0.00 | 10 | 1009.6 |
| 20260904141938 | 57 | 10 | 0.0 | 1.0 | 0.00 | 0.00 | 0.00 | 10 | 1009.6 |
| 20260904141433 | 56 | 48 | 0.0 | 1.0 | 0.00 | 0.00 | 0.00 | 10 | 1009.7 |
| 20260904140931 | 56 | 38 | 0.0 | 0.0 | 0.00 | 0.00 | 0.00 | 10 | 1009.8 |
| 20260904140430 | 55 | 46 | 0.0 | 0.0 | 0.00 | 0.00 | 0.00 | 10 | 1009.8 |
| 20260904135929 | 55 | 55 | 0.0 | 0.0 | 0.00 | 0.00 | 0.00 | 10 | 1009.9 |
| 20260904135429 | 55 | 46 | 0.0 | 0.0 | 0.00 | 0.00 | 0.00 | 10 | 1009.9 |
| 20260904134925 | 55 | 38 | 0.0 | 0.0 | 0.00 | 0.00 | 0.00 | 10 | 1010.0 |
| 20260904134425 | 54 | 29 | 0.0 | 1.0 | 0.00 | 0.00 | 0.00 | 10 | 1010.1 |
| 20260904133920 | 54 | 31 | 0.0 | 1.0 | 0.00 | 0.00 | 0.00 | 10 | 1010.0 |
| 20260904133414 | 53 | 33 | 0.0 | 0.0 | 0.00 | 0.00 | 0.00 | 10 | 1010.0 |
| 20260904132910 | 53 | 41 | 0.0 | 0.0 | 0.00 | 0.00 | 0.00 | 10 | 1010.1 |
| 20260904132405 | 52 | 44 | 0.0 | 0.0 | 0.00 | 0.00 | 0.00 | 10 | 1010.1 |
| 20260904131905 | 52 | 42 | 0.0 | 0.0 | 0.00 | 0.00 | 0.00 | 10 | 1009.9 |
| 20260904131400 | 52 | 44 | 0.0 | 0.0 | 0.00 | 0.00 | 0.00 | 10 | 1009.8 |
| 20260904130855 | 51 | 34 | 0.0 | 0.0 | 0.00 | 0.00 | 0.00 | 10 | 1009.6 |
| 20260904130355 | 51 | 49 | 0.0 | 0.0 | 0.00 | 0.00 | 0.00 | 10 | 1009.7 |
| 20260904125850 | 50 | 47 | 0.0 | 0.0 | 0.00 | 0.00 | 0.00 | 10 | 1009.8 |
| 20260904125346 | 51 | 53 | 0.0 | 0.0 | 0.00 | 0.00 | 0.00 | 10 | 1009.7 |
| 20260904124845 | 51 | 42 | 0.0 | 0.0 | 0.00 | 0.00 | 0.00 | 10 | 1009.7 |
| 20260904124342 | 51 | 36 | 0.0 | 0.0 | 0.00 | 0.00 | 0.00 | 10 | 1009.4 |
| 20260904123836 | 52 | 37 | 0.0 | 0.0 | 0.00 | 0.00 | 0.00 | 10 | 1009.4 |
| 20260904123332 | 52 | 31 | 0.0 | 0.0 | 0.00 | 0.00 | 0.00 | 10 | 1009.3 |
| 20260904122827 | 53 | 45 | 0.0 | 0.0 | 0.00 | 0.00 | 0.00 | 10 | 1009.7 |
| 20260904122327 | 53 | 38 | 0.0 | 0.0 | 0.00 | 0.00 | 0.00 | 10 | 1009.7 |
| 20260904121821 | 53 | 35 | 0.0 | 0.0 | 0.00 | 0.00 | 0.00 | 10 | 1009.7 |
| 20260904121318 | 53 | 34 | 0.0 | 0.0 | 0.00 | 0.00 | 0.00 | 10 | 1009.7 |
| 20260904120814 | 52 | 30 | 0.0 | 0.0 | 0.00 | 0.00 | 0.00 | 10 | 1009.8 |
| 20260904120309 | 51 | 38 | 0.0 | 0.0 | 0.00 | 0.00 | 0.00 | 10 | 1009.7 |
| 20260904115804 | 52 | 42 | 0.0 | 0.0 | 0.00 | 0.00 | 0.00 | 10 | 1009.7 |
| 20260904115300 | 52 | 35 | 0.0 | 0.0 | 0.00 | 0.00 | 0.00 | 10 | 1009.8 |
| 20260904114754 | 53 | 43 | 0.0 | 0.0 | 0.00 | 0.00 | 0.00 | 10 | 1009.6 |
| 20260904114254 | 53 | 39 | 0.0 | 0.0 | 0.00 | 0.00 | 0.00 | 10 | 1009.8 |
| 20260904113749 | 53 | 45 | 0.0 | 0.0 | 0.00 | 0.00 | 0.00 | 10 | 1009.6 |
| 20260904113248 | 53 | 43 | 0.0 | 0.0 | 0.00 | 0.00 | 0.00 | 10 | 1009.4 |
| 20260904112743 | 53 | 38 | 0.0 | 0.0 | 0.00 | 0.00 | 0.00 | 10 | 1009.7 |
| 20260904112239 | 53 | 40 | 0.0 | 0.0 | 0.00 | 0.00 | 0.00 | 10 | 1009.8 |
| 20260904111735 | 53 | 40 | 0.0 | 0.0 | 0.00 | 0.00 | 0.00 | 10 | 1009.8 |
| 20260904111230 | 54 | 47 | 0.0 | 0.0 | 0.00 | 0.00 | 0.00 | 10 | 1009.7 |
| 20260904110726 | 54 | 46 | 0.0 | 0.0 | 0.00 | 0.00 | 0.00 | 10 | 1009.9 |
| 20260904110225 | 54 | 46 | 0.0 | 0.0 | 0.00 | 0.00 | 0.00 | 10 | 1009.8 |
| 20260904105720 | 54 | 58 | 0.0 | 0.0 | 0.00 | 0.00 | 0.00 | 10 | 1009.9 |
| 20260904105215 | 54 | 56 | 0.0 | 0.0 | 0.00 | 0.00 | 0.00 | 10 | 1009.9 |
| 20260904104710 | 54 | 49 | 0.0 | 0.0 | 0.00 | 0.00 | 0.00 | 10 | 1009.9 |
| 20260904104206 | 54 | 45 | 0.0 | 0.0 | 0.00 | 0.00 | 0.00 | 10 | 1010.2 |
| 20260904103702 | 54 | 43 | 0.0 | 0.0 | 0.00 | 0.00 | 0.00 | 10 | 1010.0 |
| 20260904103157 | 53 | 47 | 0.0 | 0.0 | 0.00 | 0.00 | 0.00 | 10 | 1010.1 |
| 20260904102653 | 52 | 53 | 0.0 | 0.0 | 0.00 | 0.00 | 0.00 | 10 | 1010.3 |
| 20260904102148 | 52 | 43 | 0.0 | 0.0 | 0.00 | 0.00 | 0.00 | 10 | 1010.4 |
| 20260904101645 | 51 | 44 | 0.0 | 0.0 | 0.00 | 0.00 | 0.00 | 10 | 1010.3 |
| 20260904101140 | 51 | 32 | 0.0 | 0.0 | 0.00 | 0.00 | 0.00 | 10 | 1010.3 |
| 20260904100635 | 51 | 28 | 0.0 | 0.0 | 0.00 | 0.00 | 0.00 | 10 | 1010.2 |
| 20260904100125 | 51 | 47 | 0.0 | 0.0 | 0.00 | 0.00 | 0.00 | 10 | 1010.3 |
| 20260904095620 | 51 | 35 | 0.0 | 0.0 | 0.00 | 0.00 | 0.00 | 10 | 1010.5 |
| 20260904095120 | 53 | 27 | 0.0 | 0.0 | 0.00 | 0.00 | 0.00 | 10 | 1010.3 |
| 20260904094615 | 53 | 32 | 0.0 | 0.0 | 0.00 | 0.00 | 0.00 | 10 | 1010.3 |
| 20260904094109 | 53 | 46 | 0.0 | 0.0 | 0.00 | 0.00 | 0.00 | 10 | 1010.5 |
| 20260904093607 | 52 | 42 | 0.0 | 0.0 | 0.00 | 0.00 | 0.00 | 10 | 1010.8 |
| 20260904093101 | 51 | 41 | 0.0 | 0.0 | 0.00 | 0.00 | 0.00 | 10 | 1010.4 |
| 20260904092557 | 51 | 53 | 0.0 | 0.0 | 0.00 | 0.00 | 0.00 | 10 | 1010.3 |
| 20260904092053 | 51 | 46 | 0.0 | 0.0 | 0.00 | 0.00 | 0.00 | 10 | 1010.7 |
| 20260904091549 | 49 | 48 | 0.0 | 0.0 | 0.00 | 0.00 | 0.00 | 10 | 1010.7 |
| 20260904091048 | 49 | 44 | 0.0 | 0.0 | 0.00 | 0.00 | 0.00 | 10 | 1010.8 |
| 20260904090544 | 50 | 36 | 0.0 | 0.0 | 0.00 | 0.00 | 0.00 | 10 | 1010.9 |
| 20260904090040 | 50 | 51 | 0.0 | 0.0 | 0.00 | 0.00 | 0.00 | 10 | 1010.9 |
| 20260904085540 | 50 | 49 | 0.0 | 0.0 | 0.00 | 0.00 | 0.00 | 10 | 1011.0 |
| 20260904085039 | 50 | 51 | 0.0 | 0.0 | 0.00 | 0.00 | 0.00 | 10 | 1010.9 |
| 20260904084536 | 50 | 47 | 0.0 | 0.0 | 0.00 | 0.00 | 0.00 | 10 | 1010.8 |
| 20260904084032 | 50 | 65 | 0.0 | 0.0 | 0.00 | 0.00 | 0.00 | 10 | 1011.0 |
| 20260904083527 | 50 | 86 | 0.0 | 0.0 | 0.00 | 0.00 | 0.00 | 10 | 1011.0 |
| 20260904083023 | 51 | 84 | 0.0 | 0.0 | 0.00 | 0.00 | 0.00 | 10 | 1011.1 |
| 20260904082518 | 51 | 86 | 0.0 | 0.0 | 0.00 | 0.00 | 0.00 | 10 | 1011.0 |
| 20260904082013 | 51 | 101 | 0.0 | 0.0 | 0.00 | 0.00 | 0.00 | 10 | 1011.3 |
| 20260904081508 | 51 | 81 | 0.0 | 0.0 | 0.00 | 0.00 | 0.00 | 10 | 1011.0 |
| 20260904081004 | 52 | 51 | 0.0 | 0.0 | 0.00 | 0.00 | 0.00 | 10 | 1011.4 |
| 20260904080459 | 53 | 71 | 0.0 | 0.0 | 0.00 | 0.00 | 0.00 | 10 | 1011.4 |
| 20260904075955 | 53 | 60 | 0.0 | 0.0 | 0.00 | 0.00 | 0.00 | 10 | 1011.5 |
| 20260904075451 | 54 | 67 | 0.0 | 0.0 | 0.00 | 0.00 | 0.00 | 10 | 1011.3 |
| 20260904074950 | 55 | 76 | 0.0 | 0.0 | 0.00 | 0.00 | 0.00 | 10 | 1011.3 |
| 20260904074445 | 55 | 83 | 0.0 | 0.0 | 0.00 | 0.00 | 0.00 | 10 | 1011.5 |
| 20260904073940 | 55 | 70 | 0.0 | 0.0 | 0.00 | 0.00 | 0.00 | 10 | 1011.4 |
| 20260904073436 | 56 | 59 | 0.0 | 0.0 | 0.00 | 0.00 | 0.00 | 10 | 1011.3 |
| 20260904072931 | 55 | 64 | 0.0 | 0.0 | 0.00 | 0.00 | 0.00 | 10 | 1011.4 |
| 20260904072427 | 55 | 49 | 0.0 | 0.0 | 0.00 | 0.00 | 0.00 | 10 | 1011.4 |
| 20260904071921 | 56 | 49 | 0.0 | 0.0 | 0.00 | 0.00 | 0.00 | 10 | 1011.5 |
| 20260904071417 | 56 | 49 | 0.0 | 0.0 | 0.00 | 0.00 | 0.00 | 10 | 1011.6 |
| 20260904070912 | 56 | 49 | 0.0 | 0.0 | 0.00 | 0.00 | 0.00 | 10 | 1011.5 |
| 20260904070411 | 56 | 49 | 0.0 | 0.0 | 0.00 | 0.00 | 0.00 | 10 | 1011.6 |
| 20260904065910 | 57 | 50 | 0.0 | 0.0 | 0.00 | 0.00 | 0.00 | 10 | 1011.5 |
| 20260904065407 | 57 | 50 | 0.0 | 0.0 | 0.00 | 0.00 | 0.00 | 10 | 1011.8 |
| 20260904064906 | 57 | 50 | 0.0 | 0.0 | 0.00 | 0.00 | 0.00 | 10 | 1011.8 |
| 20260904064403 | 57 | 50 | 0.0 | 0.0 | 0.00 | 0.00 | 0.00 | 10 | 1011.8 |
| 20260904063858 | 57 | 49 | 0.0 | 0.0 | 0.00 | 0.00 | 0.00 | 10 | 1011.6 |
| 20260904063355 | 57 | 48 | 0.0 | 0.0 | 0.00 | 0.00 | 0.00 | 10 | 1011.6 |
| 20260904062849 | 57 | 44 | 0.0 | 0.0 | 0.00 | 0.00 | 0.00 | 10 | 1011.8 |
| 20260904062345 | 57 | 26 | 0.0 | 0.0 | 0.00 | 0.00 | 0.00 | 10 | 1011.5 |
| 20260904061841 | 56 | 13 | 0.0 | 0.0 | 0.00 | 0.00 | 0.00 | 10 | 1011.6 |
| 20260904061337 | 56 | 36 | 0.0 | 0.0 | 0.00 | 0.00 | 0.00 | 10 | 1011.8 |
| 20260904060833 | 56 | 35 | 0.0 | 0.0 | 0.00 | 0.00 | 0.00 | 10 | 1011.5 |
| 20260904060329 | 56 | 43 | 0.0 | 0.0 | 0.00 | 0.00 | 0.00 | 10 | 1011.5 |
| 20260904055824 | 56 | 26 | 0.0 | 0.0 | 0.00 | 0.00 | 0.00 | 10 | 1011.5 |
| 20260904055319 | 55 | 28 | 0.0 | 0.0 | 0.00 | 0.00 | 0.00 | 10 | 1011.5 |
| 20260904054815 | 54 | 22 | 0.0 | 0.0 | 0.00 | 0.00 | 0.00 | 10 | 1011.6 |
| 20260904054311 | 54 | 9 | 0.0 | 0.0 | 0.00 | 0.00 | 0.00 | 10 | 1011.8 |
| 20260904053806 | 55 | 304 | 0.0 | 0.0 | 0.00 | 0.00 | 0.00 | 10 | 1011.6 |
| 20260904053305 | 56 | 12 | 0.0 | 0.0 | 0.00 | 0.00 | 0.00 | 10 | 1012.0 |
| 20260904052801 | 55 | 33 | 0.0 | 0.0 | 0.00 | 0.00 | 0.00 | 10 | 1012.2 |
| 20260904052258 | 56 | 5 | 0.0 | 0.0 | 0.00 | 0.00 | 0.00 | 10 | 1012.1 |
| 20260904051754 | 55 | 20 | 0.0 | 0.0 | 0.00 | 0.00 | 0.00 | 10 | 1012.3 |
| 20260904051249 | 56 | 23 | 0.0 | 0.0 | 0.00 | 0.00 | 0.00 | 10 | 1012.3 |
| 20260904050744 | 55 | 17 | 0.0 | 0.0 | 0.00 | 0.00 | 0.00 | 10 | 1012.3 |
| 20260904050240 | 53 | 13 | 0.0 | 0.0 | 0.00 | 0.00 | 0.00 | 10 | 1012.4 |
| 20260904045735 | 53 | 6 | 0.0 | 0.0 | 0.00 | 0.00 | 0.00 | 10 | 1012.0 |
| 20260904045230 | 53 | 10 | 0.0 | 0.0 | 0.00 | 0.00 | 0.00 | 10 | 1012.2 |
| 20260904044724 | 55 | 6 | 0.0 | 0.0 | 0.00 | 0.00 | 0.00 | 10 | 1012.2 |
| 20260904044221 | 54 | 24 | 0.0 | 0.0 | 0.00 | 0.00 | 0.00 | 10 | 1012.3 |
| 20260904043717 | 53 | 31 | 0.0 | 0.0 | 0.00 | 0.00 | 0.00 | 10 | 1012.3 |
| 20260904043213 | 53 | 343 | 0.0 | 0.0 | 0.00 | 0.00 | 0.00 | 10 | 1012.0 |
| 20260904042709 | 55 | 6 | 0.0 | 0.0 | 0.00 | 0.00 | 0.00 | 10 | 1012.1 |
| 20260904042205 | 55 | 34 | 0.0 | 0.0 | 0.00 | 0.00 | 0.00 | 10 | 1012.1 |
| 20260904041704 | 54 | 49 | 0.0 | 0.0 | 0.00 | 0.00 | 0.00 | 10 | 1012.1 |
| 20260904041201 | 53 | 16 | 0.0 | 0.0 | 0.00 | 0.00 | 0.00 | 10 | 1012.1 |
| 20260904040656 | 54 | 36 | 0.0 | 0.0 | 0.00 | 0.00 | 0.00 | 10 | 1012.1 |
| 20260904040152 | 54 | 44 | 0.0 | 0.0 | 0.00 | 0.00 | 0.00 | 10 | 1011.9 |
| 20260904035647 | 55 | 39 | 0.0 | 0.0 | 0.00 | 0.00 | 0.00 | 10 | 1012.2 |
| 20260904035143 | 54 | 56 | 0.0 | 0.0 | 0.00 | 0.00 | 0.00 | 10 | 1012.0 |
| 20260904034641 | 53 | 50 | 0.0 | 0.0 | 0.00 | 0.00 | 0.00 | 10 | 1012.1 |
| 20260904034137 | 52 | 43 | 0.0 | 0.0 | 0.00 | 0.00 | 0.00 | 10 | 1012.1 |
| 20260904033633 | 52 | 25 | 0.0 | 0.0 | 0.00 | 0.00 | 0.00 | 10 | 1011.9 |
| 20260904033130 | 53 | 321 | 0.0 | 0.0 | 0.00 | 0.00 | 0.00 | 10 | 1012.2 |
| 20260904032626 | 54 | 356 | 0.0 | 0.0 | 0.00 | 0.00 | 0.00 | 10 | 1012.1 |
| 20260904032124 | 53 | 42 | 0.0 | 0.0 | 0.00 | 0.00 | 0.00 | 10 | 1012.3 |
| 20260904031624 | 52 | 15 | 0.0 | 0.0 | 0.00 | 0.00 | 0.00 | 10 | 1012.2 |
| 20260904031120 | 53 | 22 | 0.0 | 0.0 | 0.00 | 0.00 | 0.00 | 10 | 1012.0 |
| 20260904030616 | 54 | 59 | 0.0 | 0.0 | 0.00 | 0.00 | 0.00 | 10 | 1012.1 |
| 20260904030111 | 53 | 64 | 0.0 | 0.0 | 0.00 | 0.00 | 0.00 | 10 | 1012.0 |
| 20260904025607 | 54 | 63 | 0.0 | 0.0 | 0.00 | 0.00 | 0.00 | 10 | 1011.8 |
| 20260904025101 | 54 | 61 | 0.0 | 0.0 | 0.00 | 0.00 | 0.00 | 10 | 1012.0 |
| 20260904024557 | 55 | 45 | 0.0 | 0.0 | 0.00 | 0.00 | 0.00 | 10 | 1011.9 |
| 20260904024053 | 56 | 51 | 0.0 | 0.0 | 0.00 | 0.00 | 0.00 | 10 | 1011.9 |
| 20260904023549 | 56 | 50 | 0.0 | 0.0 | 0.00 | 0.00 | 0.00 | 10 | 1011.6 |
| 20260904023044 | 57 | 51 | 0.0 | 0.0 | 0.00 | 0.00 | 0.00 | 10 | 1011.5 |
| 20260904022539 | 58 | 51 | 0.0 | 0.0 | 0.00 | 0.00 | 0.00 | 10 | 1011.3 |
| 20260904022036 | 59 | 36 | 0.0 | 0.0 | 0.00 | 0.00 | 0.00 | 10 | 1011.2 |
| 20260904021531 | 59 | 3 | 0.0 | 0.0 | 0.00 | 0.00 | 0.00 | 10 | 1011.0 |
| 20260904021026 | 59 | 15 | 0.0 | 0.0 | 0.00 | 0.00 | 0.00 | 10 | 1011.1 |
| 20260904020526 | 59 | 24 | 0.0 | 0.0 | 0.00 | 0.00 | 0.00 | 10 | 1011.2 |
| 20260904020021 | 61 | 338 | 0.0 | 0.0 | 0.00 | 0.00 | 0.00 | 10 | 1011.3 |
| 20260904015515 | 62 | 358 | 0.0 | 0.0 | 0.00 | 0.00 | 0.00 | 10 | 1011.2 |
| 20260904015014 | 63 | 339 | 0.0 | 0.0 | 0.00 | 0.00 | 0.00 | 10 | 1011.5 |
| 20260904014509 | 64 | 337 | 0.0 | 0.0 | 0.00 | 0.00 | 0.00 | 10 | 1011.2 |
| 20260904014004 | 64 | 334 | 0.0 | 0.0 | 0.00 | 0.00 | 0.00 | 10 | 1011.4 |
| 20260904013501 | 65 | 328 | 0.0 | 0.0 | 0.00 | 0.00 | 0.00 | 10 | 1011.5 |
| 20260904012957 | 66 | 326 | 0.0 | 0.0 | 0.00 | 0.00 | 0.00 | 10 | 1011.2 |
| 20260904012456 | 66 | 325 | 0.0 | 0.0 | 0.00 | 0.00 | 0.00 | 10 | 1011.3 |
| 20260904011950 | 68 | 334 | 0.0 | 0.0 | 0.00 | 0.00 | 0.00 | 10 | 1011.0 |
| 20260904011445 | 68 | 328 | 0.0 | 0.0 | 0.00 | 0.00 | 0.00 | 10 | 1011.3 |
| 20260904010941 | 69 | 4 | 0.0 | 0.0 | 0.00 | 0.00 | 0.00 | 10 | 1011.1 |
| 20260904010437 | 69 | 332 | 0.0 | 0.0 | 0.00 | 0.00 | 0.00 | 10 | 1011.2 |
| 20260904005931 | 70 | 332 | 0.0 | 2.0 | 0.00 | 0.00 | 0.00 | 10 | 1011.0 |
| 20260904005422 | 70 | 325 | 0.0 | 2.0 | 0.00 | 0.00 | 0.00 | 10 | 1011.0 |
| 20260904004921 | 70 | 329 | 0.0 | 1.0 | 0.00 | 0.00 | 0.00 | 10 | 1011.0 |
| 20260904004419 | 70 | 321 | 0.0 | 0.0 | 0.00 | 0.00 | 0.00 | 10 | 1011.0 |
| 20260904003919 | 71 | 311 | 0.0 | 2.0 | 0.00 | 0.00 | 0.00 | 10 | 1011.0 |
| 20260904003414 | 71 | 322 | 1.0 | 2.0 | 0.00 | 0.00 | 0.00 | 10 | 1011.2 |
| 20260904002909 | 71 | 286 | 0.0 | 2.0 | 0.00 | 0.00 | 0.00 | 10 | 1010.8 |
| 20260904002406 | 71 | 329 | 0.0 | 2.0 | 0.00 | 0.00 | 0.00 | 10 | 1010.9 |
| 20260904001904 | 72 | 314 | 1.0 | 2.0 | 0.00 | 0.00 | 0.00 | 10 | 1010.9 |
| 20260904001401 | 72 | 317 | 0.0 | 0.0 | 0.00 | 0.00 | 0.00 | 10 | 1010.9 |
| 20260904000855 | 72 | 359 | 0.0 | 1.0 | 0.00 | 0.00 | 0.00 | 10 | 1010.8 |
| 20260904000355 | 72 | 317 | 0.0 | 0.0 | 0.00 | 0.00 | 0.00 | 10 | 1010.5 |
| 20260903235849 | 73 | 323 | 1.0 | 2.0 | 0.00 | 0.00 | 0.00 | 10 | 1010.7 |
| 20260903235345 | 72 | 313 | 1.0 | 3.0 | 0.00 | 0.00 | 0.00 | 10 | 1010.4 |
| 20260903234844 | 73 | 293 | 0.0 | 2.0 | 0.00 | 0.00 | 0.00 | 10 | 1010.4 |
| 20260903234340 | 73 | 303 | 1.0 | 3.0 | 0.00 | 0.00 | 0.00 | 10 | 1010.3 |
| 20260903233837 | 73 | 331 | 0.0 | 2.0 | 0.00 | 0.00 | 0.00 | 10 | 1010.2 |
| 20260903233332 | 73 | 296 | 0.0 | 1.0 | 0.00 | 0.00 | 0.00 | 10 | 1010.4 |
| 20260903232831 | 73 | 318 | 1.0 | 3.0 | 0.00 | 0.00 | 0.00 | 10 | 1010.5 |
| 20260903232327 | 73 | 307 | 0.0 | 5.0 | 0.00 | 0.00 | 0.00 | 10 | 1010.3 |
| 20260903231826 | 73 | 330 | 2.0 | 3.0 | 0.00 | 0.00 | 0.00 | 10 | 1010.3 |
| 20260903231322 | 73 | 309 | 1.0 | 3.0 | 0.00 | 0.00 | 0.00 | 10 | 1010.4 |
| 20260903230817 | 73 | 315 | 0.0 | 1.0 | 0.00 | 0.00 | 0.00 | 10 | 1010.4 |
| 20260903230312 | 74 | 296 | 10.0 | 17.0 | 0.00 | 0.00 | 0.00 | 10 | 1010.3 |
| 20260903225808 | 75 | 309 | 1.0 | 2.0 | 0.00 | 0.00 | 0.00 | 10 | 1010.1 |
| 20260903225306 | 74 | 328 | 0.0 | 0.0 | 0.00 | 0.00 | 0.00 | 10 | 1010.0 |
| 20260903224801 | 73 | 321 | 0.0 | 3.0 | 0.00 | 0.00 | 0.00 | 10 | 1010.0 |
| 20260903224256 | 75 | 309 | 0.0 | 1.0 | 0.00 | 0.00 | 0.00 | 10 | 1009.9 |
| 20260903223751 | 75 | 320 | 0.0 | 0.0 | 0.00 | 0.00 | 0.00 | 10 | 1010.0 |
| 20260903223250 | 74 | 331 | 0.0 | 1.0 | 0.00 | 0.00 | 0.00 | 10 | 1009.8 |
| 20260903222745 | 75 | 304 | 1.0 | 2.0 | 0.00 | 0.00 | 0.00 | 10 | 1009.7 |
| 20260903222244 | 76 | 332 | 0.0 | 1.0 | 0.00 | 0.00 | 0.00 | 10 | 1009.6 |